Tracking 29528 objects as of 14-Sep-2024
HD Live streaming from Space Station
objects crossing your sky now

STARLINK-4038

Track STARLINK-4038 now!
10-day predictions
STARLINK-4038 is classified as:


NORAD ID: 53150
Int'l Code: 2022-083U
Perigee: 546.0 km
Apogee: 547.7 km
Inclination: 53.2 °
Period: 95.4 minutes
Semi major axis: 6917 km
RCS: Unknown
Launch date: July 17, 2022
Source: United States (US)
Launch site: AIR FORCE EASTERN TEST RANGE (AFETR)
Your satellite tracking list
Your tracking list is empty




NASA's NSSDC Master Catalog

Two Line Element Set (TLE):
1 53150U 22083U   24257.76923536  .00001240  00000-0  95951-4 0  9990
2 53150  53.2156  76.8955 0001251  90.4990 269.6146 15.08848087120172
Source of the keplerian elements: AFSPC